Imperial, NE

11:55 AM MDT on August 22, 2017 (GMT -0600)
Imperial Municipal

Weather History for KIML - November, 2011

Change the Weather History Date:

Wednesday, November 2, 2011

  Actual Average Record
Temperature  
Mean Temperature 32 °F 44 °F  
Max Temperature 41 °F 58 °F 81 °F (1931)
Min Temperature 22 °F 30 °F 0 °F (1951)
Degree Days  
Heating Degree Days 33 21  
Month to date heating degree days 51 42  
Cooling Degree Days 0 0  
Month to date cooling degree days 0 0  
Year to date cooling degree days 1096 963  
Moisture  
Dew Point 28 °F    
Average Humidity 72    
Maximum Humidity 96    
Minimum Humidity 48    
Precipitation  
Precipitation 0.03 in 0.03 in 0.92 in (1956)
Sea Level Pressure  
Sea Level Pressure 30.33 in    
Wind  
Wind Speed 18 mph (North)    
Max Wind Speed 32 mph    
Max Gust Speed 41 mph    
Visibility 8 miles    
Events Snow    
T = Trace of Precipitation, MM = Missing Value Source: NWS Daily Summary

Daily Weather History Graph

Daily Weather History Graph

Search for Another Location

Airport or City:

Trip Planner

Search our weather history database for the weather conditions in past years. The results will help you decide how hot, cold, wet, or windy it might be!

Date:

Astronomy

Nov. 02, 2011 Rise Set
Actual Time 7:17 AM MDT 5:42 PM MDT
Civil Twilight 6:48 AM MDT 6:10 PM MDT
Nautical Twilight 6:16 AM MDT 6:42 PM MDT
Astronomical Twilight 5:44 AM MDT 7:14 PM MDT
Moon 1:37 PM MDT (11/2) No Moon Set
Length of Visible Light 11h 21m
Length of Day
10h 24m
Waxing Crescent, 51% of the Moon is Illuminated
Nov 2
Waxing Crescent
Nov 10
Full
Nov 18
Last Quarter
Nov 24
New
Dec 2
First Quarter

Hourly Weather History & Observations

Time (MDT) Temp. Windchill Dew Point Humidity Pressure Visibility Wind Dir Wind Speed Gust Speed Precip Events Conditions
12:53 AM 36.0 °F 24.4 °F 30.9 °F 82% 30.17 in 10.0 mi NNE 23.0 mph 35.7 mph N/A   Overcast
1:04 AM 35.6 °F 23.4 °F 32.0 °F 87% 30.15 in 9.0 mi NNE 25.3 mph 33.4 mph N/A   Overcast
1:21 AM 33.8 °F 20.8 °F 32.0 °F 93% 30.14 in 2.5 mi NNE 26.5 mph 34.5 mph 0.00 in Snow Light Snow
1:35 AM 33.8 °F 21.0 °F 32.0 °F 93% 30.16 in 1.8 mi NNE 25.3 mph 31.1 mph 0.00 in Snow Light Snow
1:53 AM 33.1 °F 20.6 °F 32.0 °F 96% 30.19 in 1.2 mi NNE 23.0 mph 31.1 mph 0.00 in Snow Light Snow
2:04 AM 33.8 °F 21.3 °F 32.0 °F 93% 30.16 in 0.8 mi NNE 24.2 mph 33.4 mph 0.00 in Snow Light Snow
2:23 AM 33.8 °F 21.6 °F 32.0 °F 93% 30.16 in 1.2 mi NNE 23.0 mph 32.2 mph 0.01 in Snow Light Snow
2:40 AM 33.8 °F 21.9 °F 32.0 °F 93% 30.16 in 2.0 mi NNE 21.9 mph 29.9 mph 0.01 in Snow Light Snow
2:53 AM 33.8 °F 21.9 °F 32.0 °F 93% 30.16 in 3.0 mi NNE 21.9 mph 31.1 mph N/A Snow Light Snow
3:53 AM 33.1 °F 20.6 °F 30.9 °F 92% 30.19 in 10.0 mi NNE 23.0 mph 34.5 mph 0.01 in   Overcast
4:53 AM 34.0 °F 21.5 °F 30.9 °F 89% 30.23 in 10.0 mi NNE 24.2 mph 32.2 mph N/A   Overcast
5:53 AM 34.0 °F 22.1 °F 30.9 °F 89% 30.28 in 9.0 mi North 21.9 mph 29.9 mph 0.00 in Snow Light Snow
6:53 AM 33.8 °F 21.6 °F 32.0 °F 93% 30.25 in 4.0 mi North 23.0 mph 27.6 mph N/A Snow Light Snow
7:53 AM 34.0 °F 23.8 °F 32.0 °F 92% 30.35 in 5.0 mi North 16.1 mph 25.3 mph 0.00 in Snow Light Snow
8:26 AM 33.8 °F 23.5 °F 32.0 °F 93% 30.32 in 9.0 mi North 16.1 mph - 0.00 in   Overcast
8:48 AM 33.8 °F 22.5 °F 32.0 °F 93% 30.33 in 10.0 mi North 19.6 mph - 0.00 in   Overcast
8:53 AM 34.0 °F 23.0 °F 32.0 °F 92% 30.39 in 10.0 mi North 18.4 mph - 0.00 in   Overcast
9:53 AM 35.1 °F 23.8 °F 32.0 °F 89% 30.41 in 10.0 mi North 20.7 mph 28.8 mph 0.00 in   Overcast
10:11 AM 35.6 °F 23.7 °F 32.0 °F 87% 30.35 in 10.0 mi North 24.2 mph 32.2 mph N/A   Overcast
10:38 AM 35.6 °F 23.0 °F 30.2 °F 81% 30.36 in 10.0 mi North 27.6 mph 35.7 mph N/A   Overcast
10:53 AM 37.4 °F 26.9 °F 28.4 °F 70% 30.36 in 10.0 mi North 20.7 mph 33.4 mph N/A   Mostly Cloudy
11:53 AM 37.0 °F 25.1 °F 28.0 °F 70% 30.43 in 10.0 mi North 26.5 mph 35.7 mph N/A   Scattered Clouds
12:53 PM 39.0 °F 27.8 °F 25.0 °F 57% 30.43 in 10.0 mi North 26.5 mph 35.7 mph N/A   Partly Cloudy
1:53 PM 39.9 °F 29.2 °F 23.0 °F 51% 30.45 in 10.0 mi North 25.3 mph 32.2 mph N/A   Scattered Clouds
2:53 PM 39.9 °F 29.7 °F 23.0 °F 51% 30.46 in 10.0 mi North 23.0 mph 31.1 mph N/A   Clear
3:53 PM 39.0 °F 28.5 °F 21.0 °F 49% 30.46 in 10.0 mi NNW 23.0 mph 31.1 mph N/A   Clear
4:53 PM 37.0 °F 27.7 °F 21.9 °F 54% 30.47 in 10.0 mi NNW 16.1 mph - N/A   Clear
5:53 PM 34.0 °F 25.0 °F 23.0 °F 64% 30.48 in 10.0 mi NW 12.7 mph - N/A   Clear
6:53 PM 30.9 °F 22.8 °F 23.0 °F 72% 30.50 in 10.0 mi NW 9.2 mph - N/A   Clear
7:53 PM 28.9 °F 19.8 °F 21.9 °F 75% 30.51 in 10.0 mi NW 10.4 mph - N/A   Clear
8:53 PM 28.4 °F 19.1 °F 21.2 °F 74% 30.41 in 10.0 mi NW 10.4 mph - N/A   Clear
9:53 PM 26.1 °F 17.6 °F 21.9 °F 84% 30.50 in 10.0 mi WNW 8.1 mph - N/A   Clear
10:53 PM 25.0 °F 14.2 °F 21.0 °F 85% 30.49 in 10.0 mi WNW 11.5 mph - N/A   Clear
11:53 PM 24.1 °F 14.4 °F 19.0 °F 81% 30.50 in 10.0 mi WNW 9.2 mph - N/A   Clear